TimeCEST,TemperatureF,Dew PointF,Humidity,Sea Level PressureIn,VisibilityMPH,Wind Direction,Wind SpeedMPH,Gust SpeedMPH,PrecipitationIn,Events,Conditions,WindDirDegrees,DateUTC
12:55 AM,32.0,21.2,64,29.77,6.2,SSW,9.2,-,N/A,,Scattered Clouds,210,2013-09-17 22:55:00
1:55 AM,32.0,28.4,87,29.74,6.2,SSW,9.2,-,N/A,,Scattered Clouds,210,2013-09-17 23:55:00
2:00 AM,32,28,78,,19,SSW,9.2,,,,Mostly Cloudy,210,2013-09-18 00:00:00
2:55 AM,32.0,30.2,93,29.74,6.2,SSW,9.2,-,N/A,,Scattered Clouds,210,2013-09-18 00:55:00
3:55 AM,32.0,32.0,100,29.71,6.2,SSW,11.5,-,N/A,,Partly Cloudy,200,2013-09-18 01:55:00
4:55 AM,32.0,28.4,87,29.71,6.2,WSW,9.2,-,N/A,,Scattered Clouds,240,2013-09-18 02:55:00
5:00 AM,32,28,80,,19,WSW,9.2,,,,Partly Cloudy,240,2013-09-18 03:00:00
5:55 AM,32.0,28.4,87,29.71,-9999.0,WSW,17.3,-,N/A,,Clear,240,2013-09-18 03:55:00
6:55 AM,32.0,28.4,87,29.71,6.2,WSW,11.5,-,N/A,,Partly Cloudy,240,2013-09-18 04:55:00
7:55 AM,32.0,26.6,80,29.71,6.2,WSW,18.4,-,N/A,,Scattered Clouds,240,2013-09-18 05:55:00
8:00 AM,32,27,74,,19,WSW,18.4,,,,Partly Cloudy,240,2013-09-18 06:00:00
8:55 AM,35.6,26.6,70,29.71,6.2,WSW,18.4,-,N/A,,Scattered Clouds,240,2013-09-18 06:55:00
9:55 AM,37.4,28.4,70,29.71,6.2,SSW,16.1,-,N/A,,Scattered Clouds,200,2013-09-18 07:55:00
10:55 AM,41.0,30.2,65,29.74,6.2,SW,17.3,-,N/A,,Scattered Clouds,220,2013-09-18 08:55:00
11:00 AM,41,31,57,,31,SW,17.3,,,,Partly Cloudy,220,2013-09-18 09:00:00
11:55 AM,42.8,32.0,66,29.74,6.2,WSW,6.9,-,N/A,,Scattered Clouds,250,2013-09-18 09:55:00
12:55 PM,44.6,33.8,66,29.71,6.2,WSW,9.2,-,N/A,,Partly Cloudy,240,2013-09-18 10:55:00
1:55 PM,46.4,33.8,62,29.71,6.2,WSW,9.2,-,N/A,,Partly Cloudy,240,2013-09-18 11:55:00
2:00 PM,46,34,52,,19,WSW,9.2,,,,Scattered Clouds,240,2013-09-18 12:00:00
2:55 PM,48.2,35.6,62,29.74,6.2,West,6.9,-,N/A,,Partly Cloudy,260,2013-09-18 12:55:00
3:55 PM,48.2,37.4,66,29.71,-9999.0,North,5.8,-,N/A,,Clear,350,2013-09-18 13:55:00
4:55 PM,46.4,33.8,62,29.71,-9999.0,SSW,13.8,-,N/A,,Clear,210,2013-09-18 14:55:00
5:00 PM,47,35,51,,19,SSW,13.8,,,,Partly Cloudy,210,2013-09-18 15:00:00
5:55 PM,44.6,32.0,61,29.71,-9999.0,SW,15.0,-,N/A,,Clear,220,2013-09-18 15:55:00
6:55 PM,42.8,33.8,70,29.71,-9999.0,SW,10.4,-,N/A,,Clear,230,2013-09-18 16:55:00
7:55 PM,41.0,35.6,81,29.71,-9999.0,SW,12.7,-,N/A,,Clear,230,2013-09-18 17:55:00
8:00 PM,42,35,70,,16,SW,12.7,,,,Mostly Cloudy,230,2013-09-18 18:00:00
8:55 PM,41.0,32.0,70,29.71,-9999.0,SW,10.4,-,N/A,,Clear,230,2013-09-18 18:55:00
9:55 PM,41.0,35.6,81,29.71,-9999.0,SSW,9.2,-,N/A,,Clear,210,2013-09-18 19:55:00
10:55 PM,41.0,37.4,87,29.71,0.6,South,4.6,-,N/A,Fog,Fog,190,2013-09-18 20:55:00
11:00 PM,40,37,85,,1,South,4.6,,,Fog,Heavy Fog,190,2013-09-18 21:00:00
11:55 PM,39.2,37.4,93,29.71,-9999.0,SSW,8.1,-,N/A,,Clear,200,2013-09-18 21:55:00